Location: Unspecified
(0.0000°N, 0.0000°E)
Time: 02:55:38
(UTC+01:00)

Delta 168 - Visible Passes

Search period start: 25 November 2017 00:00
Search period end: 05 December 2017 00:00
Orbit: 394 x 2061 km, 25.3° (Epoch: 24 November)

Date Brightness Start Highest point End Pass type
(mag) Time Alt. Az. Time Alt. Az. Time Alt. Az.
25 Nov 7.5 01:25:30 10° ESE 01:25:30 10° ESE 01:25:37 10° ESE visible
25 Nov 5.9 03:15:26 56° SSE 03:15:26 56° SSE 03:25:06 10° SE visible
25 Nov 6.5 05:05:21 18° WSW 05:12:58 31° SSW 05:22:28 10° SE visible
26 Nov 6.0 03:04:22 49° SSE 03:04:22 49° SSE 03:13:26 10° SE visible
26 Nov 6.5 04:54:17 19° WSW 05:01:23 30° SSW 05:10:59 10° SE visible
27 Nov 6.2 02:53:16 43° SSE 02:53:16 43° SSE 03:01:41 10° SE visible
27 Nov 6.6 04:43:11 19° WSW 04:49:48 29° SSW 04:59:28 10° SE visible
28 Nov 6.4 02:42:08 38° SSE 02:42:08 38° SSE 02:49:52 10° SE visible
28 Nov 6.7 04:32:03 19° SW 04:38:14 27° SSW 04:47:54 10° SE visible
29 Nov 6.5 02:30:58 34° SSE 02:30:58 34° SSE 02:38:00 10° SE visible
29 Nov 6.8 04:20:53 19° SW 04:26:41 26° SSW 04:36:18 10° SE visible
29 Nov 7.2 06:21:12 10° SW 06:28:19 17° S 06:34:40 10° SSE visible
30 Nov 6.7 02:19:48 30° SSE 02:19:48 30° SSE 02:26:06 10° SE visible
30 Nov 6.8 04:09:42 19° SW 04:15:09 25° SSW 04:24:40 10° SE visible
30 Nov 7.3 06:09:33 10° SW 06:16:58 17° S 06:23:41 10° SSE visible
01 Dec 6.8 02:08:36 26° SSE 02:08:36 26° SSE 02:14:07 10° SE visible
01 Dec 6.9 03:58:30 18° SW 04:03:38 24° SSW 04:12:59 10° SE visible
01 Dec 7.3 05:57:53 10° SW 06:05:37 18° S 06:12:41 10° SE visible
02 Dec 6.9 01:57:24 23° SSE 01:57:24 23° SSE 02:02:06 10° SE visible
02 Dec 6.9 03:47:18 18° SW 03:52:09 22° S 04:01:17 10° SE visible
02 Dec 7.3 05:46:13 10° SW 05:54:14 19° S 06:01:39 10° SE visible
03 Dec 7.1 01:46:12 20° SSE 01:46:12 20° SSE 01:50:03 10° SE visible
03 Dec 6.9 03:36:07 17° SW 03:40:41 21° S 03:49:32 10° SE visible
03 Dec 7.3 05:34:33 10° SW 05:42:50 19° S 05:50:35 10° SE visible
04 Dec 7.2 01:35:02 17° SSE 01:35:02 17° SSE 01:37:56 10° SE visible
04 Dec 7.0 03:24:57 17° SSW 03:29:14 20° S 03:37:47 10° SE visible
04 Dec 7.3 05:22:53 10° SW 05:31:23 20° S 05:39:29 10° SE visible
